User: anonymous   Login
Location: Caltech
(34.1382°N, 118.1253°W)
Time: 05:03:46
(UTC-08:00)
Language:

GPS 2-04 Rocket1 - Orbit

View from above orbital plane
View from above orbital plane
View from above satellite
View from above satellite

Ground track
Ground track

The orbit data is extracted from the following two-line orbital elements,

1 20303U 89085B   16037.77837675  .00008604  00000-0  32985-3 0  9993
2 20303  35.6294 252.6756 0114824 113.3477 247.9375 15.19857757424875
Epoch (UTC): 06 February 2016 18:40:51
Eccentricity: 0.0114824
inclination: 35.6294°
perigee height: 427 km
apogee height: 585 km
right ascension of ascending node: 252.6756°
argument of perigee: 113.3477°
revolutions per day: 15.19857757
mean anomaly at epoch: 247.9375°
orbit number at epoch: 42487

The dashed part of the orbit path shows where the satellite is in the earth's shadow,  

DLR